DW5138 Weather Reports


Display with metric or nautical units.
time (UTC)temp
F
wind
direction
speed
MPH
gust
MPH
rain 1hr
in
rain 24hr
in
rain mn
in
humidity
%
barometer
mb
20211204103333 32 121 0.0 0.0 0.00 0.00 0.00 76 3063.5
20211204102833 32 121 0.0 0.0 0.00 0.00 0.00 76 3063.8
20211204102333 32 121 0.0 0.0 0.00 0.00 0.00 76 3064.0
20211204101833 32 121 0.0 0.0 0.00 0.00 0.00 76 3063.9
20211204101333 32 121 0.0 0.0 0.00 0.00 0.00 76 3064.3
20211204100833 32 121 0.0 0.0 0.00 0.00 0.00 76 3064.2
20211204100333 32 121 0.0 0.0 0.00 0.00 0.00 76 3066.0
20211204095833 32 121 0.0 0.0 0.00 0.00 0.00 76 3065.9
20211204095333 32 121 0.0 0.0 0.00 0.00 0.00 76 3065.9
20211204094833 32 121 0.0 0.0 0.00 0.00 0.00 76 3066.0
20211204094333 32 121 0.0 0.0 0.00 0.00 0.00 76 3066.5
20211204093833 32 121 0.0 0.0 0.00 0.00 0.00 76 3067.2
20211204093333 32 121 0.0 0.0 0.00 0.00 0.00 76 3067.2
20211204092833 32 121 0.0 0.0 0.00 0.00 0.00 76 3067.4
20211204092333 32 121 0.0 0.0 0.00 0.00 0.00 76 3067.4
20211204091833 32 121 0.0 0.0 0.00 0.00 0.00 76 3067.8
20211204091333 32 121 0.0 0.0 0.00 0.00 0.00 76 3068.0
20211204090833 32 121 0.0 0.0 0.00 0.00 0.00 76 3068.5
20211204090333 32 121 0.0 0.0 0.00 0.00 0.00 76 3070.9
20211204085833 32 121 0.0 0.0 0.00 0.00 0.00 76 3071.6
20211204085333 32 121 0.0 0.0 0.00 0.00 0.00 76 3072.0
20211204084833 32 121 0.0 0.0 0.00 0.00 0.00 76 3072.2
20211204084333 32 121 0.0 0.0 0.00 0.00 0.00 76 3071.7
20211204083833 33 123 0.0 0.0 0.00 0.00 0.00 77 3071.7
20211204083333 33 123 0.0 0.0 0.00 0.00 0.00 77 3071.6
20211204082833 33 123 0.0 0.0 0.00 0.00 0.00 78 3071.5
20211204082333 33 123 0.0 0.0 0.00 0.00 0.00 77 3071.5
20211204081834 33 123 0.0 0.0 0.00 0.00 0.00 77 3071.4
20211204081333 33 123 0.0 0.0 0.00 0.00 0.00 77 3071.2
20211204080833 33 123 0.0 0.0 0.00 0.00 0.00 78 3071.2
20211204080333 32 123 0.0 0.0 0.00 0.00 0.00 76 3071.0
20211204075833 33 123 0.0 0.0 0.00 0.00 0.00 76 3070.9
20211204075333 33 123 0.0 0.0 0.00 0.00 0.00 76 3070.9
20211204074833 33 123 0.0 0.0 0.00 0.00 0.00 77 3070.7
20211204074333 33 123 0.0 0.0 0.00 0.00 0.00 77 3070.9
20211204073834 33 123 0.0 0.0 0.00 0.00 0.00 76 3070.8
20211204073333 33 123 0.0 0.0 0.00 0.00 0.00 77 3070.6
20211204072833 33 123 0.0 0.0 0.00 0.00 0.00 77 3070.7
20211204072333 33 123 0.0 0.0 0.00 0.00 0.00 77 3071.1
20211204071834 33 123 0.0 0.0 0.00 0.00 0.00 77 3071.2
20211204071333 33 123 0.0 0.0 0.00 0.00 0.00 78 3071.2
20211204070833 33 123 0.0 0.0 0.00 0.00 0.00 78 3071.0
20211204070333 33 123 0.0 0.0 0.00 0.00 0.00 77 3071.1
20211204065833 33 123 0.0 0.0 0.00 0.00 0.00 75 3071.0
20211204065333 33 123 0.0 0.0 0.00 0.00 0.00 74 3071.4
20211204064833 34 123 0.0 0.0 0.00 0.00 0.00 74 3071.1
20211204064333 34 123 0.0 0.0 0.00 0.00 0.00 73 3071.1
20211204063833 34 123 0.0 0.0 0.00 0.00 0.00 75 3071.2
20211204063333 35 123 0.0 0.0 0.00 0.00 0.00 72 3072.4
20211204062834 35 123 0.0 0.0 0.00 0.00 0.00 73 3072.4
20211204062333 35 123 0.0 0.0 0.00 0.00 0.00 73 3072.6
20211204061833 35 123 0.0 0.0 0.00 0.00 0.00 74 3072.4
20211204061333 35 123 0.0 0.0 0.00 0.00 0.00 73 3072.6
20211204060833 35 123 0.0 0.0 0.00 0.00 0.00 73 3072.1
20211204060333 35 123 0.0 0.0 0.00 0.00 0.00 73 3072.0
20211204055833 35 123 0.0 0.0 0.00 0.00 0.00 73 3072.1
20211204055333 35 123 0.0 0.0 0.00 0.00 0.00 72 3072.1
20211204054833 36 123 0.0 0.0 0.00 0.00 0.00 71 3073.3
20211204054333 36 123 0.0 0.0 0.00 0.00 0.00 71 3073.2
20211204053833 36 123 0.0 0.0 0.00 0.00 0.00 70 3073.0
20211204053333 36 123 0.0 0.0 0.00 0.00 0.00 71 3073.1
20211204052833 37 123 0.0 0.0 0.00 0.00 0.00 70 3072.9
20211204052334 37 123 0.0 0.0 0.00 0.00 0.00 70 3073.0
20211204051833 37 123 0.0 0.0 0.00 0.00 0.00 70 3072.9
20211204051333 36 123 0.0 0.0 0.00 0.00 0.00 71 3072.7
20211204050833 36 123 0.0 0.0 0.00 0.00 0.00 72 3072.6
20211204050333 36 122 0.0 0.0 0.00 0.00 0.00 70 3070.8
20211204045833 36 123 0.0 0.0 0.00 0.00 0.00 69 3070.5
20211204045333 37 123 0.0 0.0 0.00 0.00 0.00 68 3070.5
20211204044834 37 123 0.0 0.0 0.00 0.00 0.00 67 3070.3
20211204044333 37 123 0.0 0.0 0.00 0.00 0.00 68 3070.2
20211204043833 38 123 0.0 0.0 0.00 0.00 0.00 66 3071.7
20211204043333 38 123 0.0 0.0 0.00 0.00 0.00 66 3071.3
20211204042833 38 123 0.0 0.0 0.00 0.00 0.00 67 3071.3
20211204042333 38 122 0.0 0.0 0.00 0.00 0.00 68 3071.0
20211204041833 37 164 0.0 0.0 0.00 0.00 0.00 68 3069.1
20211204041333 38 164 0.0 0.0 0.00 0.00 0.00 66 3070.5
20211204040833 38 164 0.0 0.0 0.00 0.00 0.00 66 3070.2
20211204040403 38 164 0.0 0.0 0.00 0.00 0.00 65 3066.8
20211204035833 38 164 0.0 0.0 0.00 0.00 0.00 64 3066.6
20211204033821 39 164 0.0 0.0 0.00 0.00 0.00 64 3068.1
20211204033321 38 164 0.0 0.0 0.00 0.00 0.00 65 3066.4
20211204032822 39 164 0.0 0.0 0.00 0.00 0.00 62 3067.4
20211204032330 39 164 0.0 0.0 0.00 0.00 0.00 63 3067.5
20211204030342 39 164 0.0 0.0 0.00 0.00 0.00 61 3063.0
20211204025842 40 164 0.0 0.0 0.00 0.00 0.00 59 3064.3
20211204025342 40 164 0.0 0.0 0.00 0.00 0.00 60 3064.6
20211204024843 40 164 0.0 0.0 0.00 0.00 0.00 59 3064.8
20211204024343 41 164 0.0 0.0 0.00 0.00 0.00 59 3064.3
20211204023843 42 164 0.0 0.0 0.00 0.00 0.00 58 3065.8
20211204023343 42 164 0.0 0.0 0.00 0.00 0.00 58 3065.7
20211204022844 42 164 0.0 0.0 0.00 0.00 0.00 58 3065.7
20211204022342 42 164 0.0 1.0 0.00 0.00 0.00 56 3065.3
20211204021844 43 165 0.0 1.0 0.00 0.00 0.00 56 3065.2
20211204021342 43 129 0.0 0.0 0.00 0.00 0.00 56 3064.9
20211204020843 43 129 0.0 0.0 0.00 0.00 0.00 56 3064.8
20211204020342 42 129 0.0 0.0 0.00 0.00 0.00 57 3063.1
20211204015842 42 71 0.0 0.0 0.00 0.00 0.00 58 3063.0
20211204015343 42 71 0.0 0.0 0.00 0.00 0.00 58 3063.0
20211204014843 42 71 0.0 0.0 0.00 0.00 0.00 57 3062.6
20211204014343 42 71 0.0 0.0 0.00 0.00 0.00 57 3062.6
20211204013843 42 71 0.0 0.0 0.00 0.00 0.00 56 3062.3
20211204013343 43 71 0.0 0.0 0.00 0.00 0.00 55 3063.5
20211204012843 43 71 0.0 2.0 0.00 0.00 0.00 56 3063.8
20211204012342 43 71 0.0 2.0 0.00 0.00 0.00 55 3063.4
20211204011843 43 82 0.0 1.0 0.00 0.00 0.00 53 3063.0
20211204011342 43 82 0.0 2.0 0.00 0.00 0.00 55 3062.9
20211204010842 42 82 0.0 2.0 0.00 0.00 0.00 55 3061.2
20211204010342 43 81 0.0 1.0 0.00 0.00 0.00 53 3062.6
20211204005842 43 81 0.0 1.0 0.00 0.00 0.00 54 3062.7
20211204005342 43 80 0.0 1.0 0.00 0.00 0.00 54 3062.4
20211204004842 43 80 0.0 0.0 0.00 0.00 0.00 52 3062.1
20211204004342 43 80 0.0 0.0 0.00 0.00 0.00 52 3062.1
20211204003842 44 80 0.0 0.0 0.00 0.00 0.00 51 3061.7
20211204003343 45 80 0.0 0.0 0.00 0.00 0.00 49 3062.8
20211204002842 45 80 0.0 0.0 0.00 0.00 0.00 50 3062.4
20211204002342 45 80 0.0 0.0 0.00 0.00 0.00 50 3062.3
20211204001842 46 80 0.0 0.0 0.00 0.00 0.00 49 3062.2
20211204001342 46 80 0.0 0.0 0.00 0.00 0.00 49 3061.6
20211204000842 46 80 0.0 1.0 0.00 0.00 0.00 48 3061.4
20211204000342 47 80 0.0 1.0 0.00 0.00 0.00 48 3062.1
20211203235842 47 80 0.0 1.0 0.00 0.00 0.00 47 3062.1
20211203235342 47 76 0.0 2.0 0.00 0.00 0.00 47 3061.6
20211203234842 48 61 0.0 2.0 0.00 0.00 0.00 47 3061.7
20211203234342 48 68 0.0 3.0 0.00 0.00 0.00 46 3061.5
20211203233842 48 55 0.0 3.0 0.00 0.00 0.00 45 3060.9
20211203233342 49 68 0.0 5.0 0.00 0.00 0.00 45 3062.0
20211203232842 49 111 0.0 5.0 0.00 0.00 0.00 44 3061.9
20211203232343 49 83 0.0 4.0 0.00 0.00 0.00 44 3061.6
20211203231842 50 160 0.0 3.0 0.00 0.00 0.00 42 3061.3
20211203231342 50 213 3.0 3.0 0.00 0.00 0.00 42 3060.8
20211203230842 51 105 0.0 2.0 0.00 0.00 0.00 41 3062.2
20211203230342 51 130 0.0 2.0 0.00 0.00 0.00 40 3061.7
20211203225855 52 238 2.0 2.0 0.00 0.00 0.00 39 3061.7
20211203210835 56 246 0.0 8.0 0.00 0.00 0.00 35 3060.7
20211203210335 56 253 0.0 8.0 0.00 0.00 0.00 35 3060.6
20211203205834 56 239 2.0 9.0 0.00 0.00 0.00 34 3060.5
20211203205334 56 131 0.0 9.0 0.00 0.00 0.00 35 3060.5
20211203204835 56 253 2.0 8.0 0.00 0.00 0.00 35 3060.5
20211203204335 56 271 4.0 6.0 0.00 0.00 0.00 35 3060.4
20211203203835 57 92 0.0 7.0 0.00 0.00 0.00 35 3062.0
20211203203335 56 68 1.0 8.0 0.00 0.00 0.00 35 3060.9
20211203202834 56 200 5.0 8.0 0.00 0.00 0.00 35 3060.8
20211203202334 57 90 1.0 7.0 0.00 0.00 0.00 34 3062.1
20211203201834 57 97 0.0 6.0 0.00 0.00 0.00 35 3062.7
20211203201335 56 228 0.0 6.0 0.00 0.00 0.00 35 3061.1
20211203195340 56 45 0.0 8.0 0.00 0.00 0.00 35 3064.6
20211203194840 56 62 4.0 8.0 0.00 0.00 0.00 35 3064.8
20211203194340 56 67 1.0 8.0 0.00 0.00 0.00 35 3065.4
20211203193840 56 248 1.0 7.0 0.00 0.00 0.00 34 3065.4
20211203193340 57 357 3.0 7.0 0.00 0.00 0.00 34 3066.9
20211203192839 56 149 1.0 7.0 0.00 0.00 0.00 34 3066.0
20211203192339 56 76 0.0 7.0 0.00 0.00 0.00 34 3065.8
20211203191840 56 353 3.0 7.0 0.00 0.00 0.00 34 3066.1
20211203191340 55 35 0.0 9.0 0.00 0.00 0.00 34 3066.4
20211203190839 55 43 2.0 9.0 0.00 0.00 0.00 34 3066.6
20211203190340 55 228 0.0 8.0 0.00 0.00 0.00 33 3066.6
20211203185839 56 241 3.0 9.0 0.00 0.00 0.00 32 3067.0
20211203185339 56 349 3.0 9.0 0.00 0.00 0.00 32 3067.2
20211203184839 55 208 2.0 9.0 0.00 0.00 0.00 32 3067.2
20211203184339 56 255 8.0 9.0 0.00 0.00 0.00 31 3067.7
20211203183839 56 264 0.0 7.0 0.00 0.00 0.00 31 3068.1
20211203183339 56 26 2.0 7.0 0.00 0.00 0.00 31 3068.1
20211203182839 57 237 2.0 7.0 0.00 0.00 0.00 31 3070.1
20211203182339 57 260 0.0 5.0 0.00 0.00 0.00 32 3070.2
20211203181839 56 23 0.0 5.0 0.00 0.00 0.00 32 3069.2
20211203181340 56 306 1.0 6.0 0.00 0.00 0.00 33 3069.2
20211203180839 56 211 2.0 6.0 0.00 0.00 0.00 32 3069.4
20211203180339 56 225 0.0 6.0 0.00 0.00 0.00 31 3068.4
20211203175839 56 9 2.0 4.0 0.00 0.00 0.00 31 3068.9
20211203175339 56 227 0.0 3.0 0.00 0.00 0.00 31 3069.0
20211203174839 55 237 0.0 3.0 0.00 0.00 0.00 33 3069.1
20211203174339 55 106 0.0 2.0 0.00 0.00 0.00 33 3069.4
20211203173839 55 194 0.0 3.0 0.00 0.00 0.00 34 3069.5
20211203173339 55 240 0.0 3.0 0.00 0.00 0.00 34 3069.8
20211203172839 55 239 1.0 4.0 0.00 0.00 0.00 34 3070.0
20211203172339 55 272 1.0 4.0 0.00 0.00 0.00 34 3070.0
20211203171838 54 201 0.0 5.0 0.00 0.00 0.00 35 3068.5
20211203171339 54 284 1.0 5.0 0.00 0.00 0.00 35 3068.8
20211203170839 54 258 0.0 4.0 0.00 0.00 0.00 35 3068.8
20211203170339 54 175 0.0 5.0 0.00 0.00 0.00 35 3068.7
20211203165839 54 256 1.0 5.0 0.00 0.00 0.00 34 3068.6
20211203165338 54 232 0.0 2.0 0.00 0.00 0.00 35 3068.7
20211203164838 54 232 0.0 3.0 0.00 0.00 0.00 35 3068.4
20211203164338 53 237 2.0 3.0 0.00 0.00 0.00 34 3068.4
20211203163838 53 230 0.0 4.0 0.00 0.00 0.00 35 3068.5
20211203163338 53 272 3.0 4.0 0.00 0.00 0.00 35 3068.7
20211203162838 53 225 0.0 4.0 0.00 0.00 0.00 35 3068.5
20211203162338 53 248 0.0 4.0 0.00 0.00 0.00 35 3068.5
20211203161838 52 90 0.0 2.0 0.00 0.00 0.00 36 3067.0
20211203161338 51 113 0.0 3.0 0.00 0.00 0.00 35 3066.7
20211203160839 51 82 0.0 3.0 0.00 0.00 0.00 34 3066.4
20211203160338 50 70 0.0 3.0 0.00 0.00 0.00 34 3065.0
20211203155838 50 43 0.0 2.0 0.00 0.00 0.00 34 3064.6
20211203155338 49 93 0.0 2.0 0.00 0.00 0.00 33 3064.3
20211203154838 48 93 0.0 2.0 0.00 0.00 0.00 33 3062.7
20211203154338 48 42 0.0 2.0 0.00 0.00 0.00 32 3062.3
20211203153838 47 41 0.0 2.0 0.00 0.00 0.00 32 3062.2
20211203153338 47 53 0.0 7.0 0.00 0.00 0.00 33 3061.6
20211203152838 47 78 0.0 7.0 0.00 0.00 0.00 33 3061.2
20211203152338 47 71 0.0 4.0 0.00 0.00 0.00 33 3060.8
20211203151838 47 49 1.0 5.0 0.00 0.00 0.00 33 3060.1
20211203151337 46 75 0.0 8.0 0.00 0.00 0.00 33 3058.2
20211203150838 46 95 0.0 8.0 0.00 0.00 0.00 33 3057.8
20211203150338 46 47 1.0 3.0 0.00 0.00 0.00 34 3058.9
20211203145837 46 95 0.0 4.0 0.00 0.00 0.00 34 3058.4
20211203145338 45 117 0.0 5.0 0.00 0.00 0.00 34 3058.1
20211203144838 45 74 0.0 5.0 0.00 0.00 0.00 34 3057.6
20211203144337 44 85 0.0 3.0 0.00 0.00 0.00 34 3056.0
20211203143837 44 79 0.0 2.0 0.00 0.00 0.00 34 3055.4
20211203143337 44 160 0.0 1.0 0.00 0.00 0.00 34 3055.4
20211203142837 44 133 0.0 1.0 0.00 0.00 0.00 35 3054.7
20211203142338 44 123 0.0 1.0 0.00 0.00 0.00 35 3054.4
20211203141837 43 158 0.0 1.0 0.00 0.00 0.00 35 3054.0
20211203141337 45 139 0.0 0.0 0.00 0.00 0.00 30 3055.2
20211203140837 45 139 0.0 0.0 0.00 0.00 0.00 30 3054.7
20211203140337 45 139 0.0 0.0 0.00 0.00 0.00 30 3056.3
20211203135837 45 139 0.0 0.0 0.00 0.00 0.00 30 3055.6
20211203135337 45 139 0.0 0.0 0.00 0.00 0.00 30 3056.0
20211203134837 45 139 0.0 0.0 0.00 0.00 0.00 30 3056.3
20211203134337 45 139 0.0 0.0 0.00 0.00 0.00 30 3055.5
20211203133837 45 139 0.0 0.0 0.00 0.00 0.00 30 3054.9
20211203133337 45 139 0.0 0.0 0.00 0.00 0.00 30 3054.5
20211203132837 45 139 0.0 0.0 0.00 0.00 0.00 30 3053.9
20211203132337 45 139 0.0 0.0 0.00 0.00 0.00 30 3053.9
20211203131837 45 139 0.0 0.0 0.00 0.00 0.00 30 3053.4
20211203131337 45 139 0.0 0.0 0.00 0.00 0.00 30 3052.8
20211203130837 45 139 0.0 0.0 0.00 0.00 0.00 30 3052.5
20211203130337 45 139 0.0 0.0 0.00 0.00 0.00 30 3054.9
20211203125837 45 139 0.0 0.0 0.00 0.00 0.00 30 3054.7
20211203125337 45 139 0.0 0.0 0.00 0.00 0.00 30 3054.6
20211203124837 45 139 0.0 0.0 0.00 0.00 0.00 30 3054.1
20211203124337 45 139 0.0 0.0 0.00 0.00 0.00 30 3053.9
20211203123838 45 139 0.0 0.0 0.00 0.00 0.00 30 3053.6
20211203123337 45 139 0.0 0.0 0.00 0.00 0.00 30 3053.5
20211203122837 45 139 0.0 0.0 0.00 0.00 0.00 30 3053.5
20211203122338 45 139 0.0 0.0 0.00 0.00 0.00 30 3053.4
20211203121837 45 139 0.0 0.0 0.00 0.00 0.00 30 3053.0
20211203121337 45 139 0.0 0.0 0.00 0.00 0.00 30 3053.0
20211203120837 45 139 0.0 0.0 0.00 0.00 0.00 30 3053.3
20211203120337 45 139 0.0 0.0 0.00 0.00 0.00 30 3054.6
20211203115837 45 139 0.0 0.0 0.00 0.00 0.00 30 3054.2
20211203115337 45 139 0.0 0.0 0.00 0.00 0.00 30 3054.1
20211203114837 45 139 0.0 0.0 0.00 0.00 0.00 30 3053.9
20211203114337 45 139 0.0 0.0 0.00 0.00 0.00 30 3053.9
20211203113836 45 139 0.0 0.0 0.00 0.00 0.00 30 3054.1
20211203113337 45 139 0.0 0.0 0.00 0.00 0.00 30 3054.1
20211203112837 45 139 0.0 0.0 0.00 0.00 0.00 30 3053.9
20211203112336 45 139 0.0 0.0 0.00 0.00 0.00 30 3054.1
20211203111836 45 139 0.0 0.0 0.00 0.00 0.00 30 3053.5
20211203111336 45 139 0.0 0.0 0.00 0.00 0.00 30 3053.4
20211203110837 45 139 0.0 0.0 0.00 0.00 0.00 30 3053.5
20211203110336 45 139 0.0 0.0 0.00 0.00 0.00 30 3057.7
20211203105836 45 139 0.0 0.0 0.00 0.00 0.00 30 3058.0
20211203105336 45 139 0.0 0.0 0.00 0.00 0.00 30 3058.2
20211203104837 45 139 0.0 0.0 0.00 0.00 0.00 30 3058.2
20211203104336 45 139 0.0 0.0 0.00 0.00 0.00 30 3058.1
20211203103836 45 139 0.0 0.0 0.00 0.00 0.00 30 3058.1